Location: Kaltenbach
(49.2000°N, 7.7500°E)
Time: 21:29:00
(UTC+00:00)

USA 234 - Pass Details

Date: 24 January 2020
Orbit: 1100 x 1107 km, 123.0° (Epoch: 09 February)

Event Time Altitude Azimuth Distance (km) Brightness Sun altitude
Rises 17:17:34 0° 139° (SE) 3,905 5.9 -10.7°
Reaches altitude 10° 17:20:05 10° 143° (SE) 2,951 5.3 -11.1°
Maximum altitude 17:26:29 57° 222° (SW) 1,283 4.0 -12.1°
Drops below altitude 10° 17:32:55 10° 300° (WNW) 2,967 6.2 -13.1°
Sets 17:35:28 0° 305° (NW) 3,928 6.8 -13.5°
